[Date Prev][Date Next][Thread Prev][Thread Next] - [Date Index][Thread Index][Author Index]
2 LIne PcSat Keps 10-8
- Subject: [sarex] 2 LIne PcSat Keps 10-8
- From: "Dave Larsen PhD" <doc@xxxxxxxxxxx>
- Date: Wed, 9 Oct 2002 01:16:20 -0700
PCSAT
1 26931U 01043C 02281.34028360 .00000394 00000-0 18822-3 0 2980
2 26931 67.0489 238.5652 0007007 252.5662 107.4674 14.28986153 53318
----
Via the sarex mailing list at AMSAT.ORG courtesy of AMSAT-NA.
To unsubscribe, send "unsubscribe sarex" to Majordomo@amsat.org
AMSAT Home